カタログに戻る

FENGYUN 1C DEB

運用中SSO
NORAD 35102·DEBRIS·🇨🇳 China

打ち上げ May 10, 1999 から Taiyuan Satellite Launch Center

Loading…

次のパス (今後24時間)

TLE

最新Source: Space-Track

元期: Sep 13, 2026, 06:32 UTC

1 35102U 99025DKE 26256.27240667  .00000738  00000-0  29980-3 0  9990
2 35102  98.4777 264.1156 0059587   4.6085 355.5633 14.29485745688345

AllMySatでFENGYUN 1C DEBをリアルタイム追跡

Download on the App Store